Weather History for KCXO - July, 2013

Change the Weather History Date:

Tuesday, July 16, 2013

  Actual Average Record
Temperature  
Mean Temperature 81 °F -  
Max Temperature 90 °F 91 °F 102 °F (2000)
Min Temperature 72 °F 70 °F 69 °F (2007)
Cooling Degree Days 16    
Growing Degree Days 31 (Base 50)    
Moisture  
Dew Point 72 °F    
Average Humidity 88    
Maximum Humidity 100    
Minimum Humidity 48    
Precipitation  
Precipitation 0.10 in - - ()
Sea Level Pressure  
Sea Level Pressure 30.08 in    
Wind  
Wind Speed 1 mph (East)    
Max Wind Speed 8 mph    
Max Gust Speed 16 mph    
Visibility 9 miles    
Events Rain , Thunderstorm    
Averages and records for this station are not official NWS values.
T = Trace of Precipitation, MM = Missing Value Source: NWS Daily Summary

Daily Weather History Graph

Daily Weather History Graph

Search for Another Location

Airport or City:

Trip Planner

Search our weather history database for the weather conditions in past years. The results will help you decide how hot, cold, wet, or windy it might be!

Date:

Astronomy

Jul. 16, 2013 Rise Set
Actual Time 6:30 AM CDT 8:24 PM CDT
Civil Twilight 6:03 AM CDT 8:51 PM CDT
Nautical Twilight 5:31 AM CDT 9:23 PM CDT
Astronomical Twilight 4:56 AM CDT 9:58 PM CDT
Moon 2:16 PM CDT (7/16) 12:48 AM CDT (7/16)
Length of Visible Light 14h 47m
Length of Day
13h 53m
First Quarter, 56% of the Moon is Illuminated
Jul 16
First Quarter
Jul 22
Full
Jul 29
Last Quarter
Aug 6
New
Aug 14
First Quarter

Hourly Weather History & Observations

Time (CDT) Temp. Heat Index Dew Point Humidity Pressure Visibility Wind Dir Wind Speed Gust Speed Precip Events Conditions
12:53 AM 73.0 °F - 72.0 °F 96% 30.06 in 9.0 mi Calm Calm - N/A   Clear
1:53 AM 73.0 °F - 72.0 °F 96% 30.05 in 9.0 mi Calm Calm - N/A   Clear
2:53 AM 73.0 °F - 72.0 °F 96% 30.04 in 9.0 mi Calm Calm - N/A   Clear
3:53 AM 72.0 °F - 72.0 °F 100% 30.05 in 9.0 mi Calm Calm - N/A   Clear
4:28 AM 73.4 °F - 71.6 °F 94% 30.06 in 9.0 mi Calm Calm - N/A   Partly Cloudy
4:53 AM 73.0 °F - 72.0 °F 96% 30.05 in 9.0 mi Calm Calm - N/A   Partly Cloudy
5:17 AM 73.4 °F - 71.6 °F 94% 30.06 in 10.0 mi Calm Calm - N/A   Mostly Cloudy
5:37 AM 73.4 °F - 71.6 °F 94% 30.06 in 8.0 mi Calm Calm - N/A   Scattered Clouds
5:53 AM 73.0 °F - 72.0 °F 96% 30.06 in 9.0 mi Calm Calm - N/A   Clear
6:21 AM 73.4 °F - 71.6 °F 94% 30.07 in 8.0 mi Calm Calm - N/A   Partly Cloudy
6:34 AM 73.4 °F - 71.6 °F 94% 30.07 in 6.0 mi Calm Calm - N/A   Mostly Cloudy
6:53 AM 73.0 °F - 72.0 °F 96% 30.06 in 6.0 mi Calm Calm - N/A   Mostly Cloudy
7:40 AM 73.4 °F - 73.4 °F 100% 30.08 in 6.0 mi Calm Calm - N/A   Scattered Clouds
7:50 AM 73.4 °F - 73.4 °F 100% 30.09 in 7.0 mi Calm Calm - N/A   Mostly Cloudy
7:53 AM 73.9 °F - 73.0 °F 97% 30.08 in 7.0 mi Calm Calm - N/A   Mostly Cloudy
8:00 AM 73.4 °F - 73.4 °F 100% 30.09 in 8.0 mi Calm Calm - N/A   Mostly Cloudy
8:07 AM 73.4 °F - 73.4 °F 100% 30.09 in 8.0 mi Calm Calm - N/A   Overcast
8:49 AM 75.2 °F - 71.6 °F 89% 30.10 in 10.0 mi Calm Calm - N/A   Scattered Clouds
8:53 AM 75.9 °F - 73.0 °F 91% 30.09 in 10.0 mi Variable 4.6 mph - N/A   Partly Cloudy
9:53 AM 80.1 °F 83.8 °F 72.0 °F 76% 30.11 in 10.0 mi Variable 6.9 mph - N/A   Clear
10:53 AM 82.9 °F 87.0 °F 70.0 °F 65% 30.11 in 10.0 mi Variable 5.8 mph - N/A   Clear
11:53 AM 84.9 °F 90.1 °F 71.1 °F 63% 30.11 in 10.0 mi SE 8.1 mph - N/A   Clear
12:53 PM 87.1 °F 92.8 °F 71.1 °F 59% 30.09 in 10.0 mi Variable 4.6 mph - N/A   Mostly Cloudy
1:53 PM 86.0 °F 91.5 °F 71.1 °F 61% 30.07 in 10.0 mi Variable 4.6 mph - 0.00 in   Scattered Clouds
2:53 PM 88.0 °F 93.8 °F 71.1 °F 57% 30.05 in 10.0 mi ENE 8.1 mph - N/A   Partly Cloudy
3:53 PM 90.0 °F 93.6 °F 68.0 °F 48% 30.04 in 10.0 mi Variable 3.5 mph - N/A   Partly Cloudy
4:04 PM 89.6 °F 94.7 °F 69.8 °F 52% 30.05 in 10.0 mi Variable 6.9 mph 16.1 mph N/A Thunderstorm Mostly Cloudy
4:53 PM 75.9 °F - 73.0 °F 91% 30.08 in 10.0 mi East 4.6 mph - 0.03 in Rain , Thunderstorm Light Rain
5:15 PM 75.2 °F - 73.4 °F 94% 30.08 in 10.0 mi Variable 4.6 mph - 0.00 in   Mostly Cloudy
5:53 PM 75.9 °F - 73.9 °F 94% 30.07 in 7.0 mi Calm Calm - 0.02 in Rain Light Rain
6:53 PM 75.0 °F - 73.9 °F 96% 30.08 in 9.0 mi NNE 4.6 mph - 0.05 in Rain Light Rain
7:53 PM 75.0 °F - 73.9 °F 96% 30.09 in 10.0 mi Calm Calm - 0.00 in Rain Light Rain
8:53 PM 75.0 °F - 73.0 °F 94% 30.10 in 10.0 mi Calm Calm - 0.00 in   Clear
9:53 PM 73.9 °F - 73.0 °F 97% 30.12 in 10.0 mi Calm Calm - N/A   Mostly Cloudy
10:53 PM 73.9 °F - 72.0 °F 93% 30.13 in 10.0 mi Variable 3.5 mph - N/A   Partly Cloudy
11:46 PM 73.4 °F - 73.4 °F 100% 30.14 in 10.0 mi ESE 4.6 mph - 0.00 in   Mostly Cloudy
11:53 PM 73.9 °F - 73.0 °F 97% 30.13 in 10.0 mi Calm Calm - 0.00 in   Mostly Cloudy